Date String (YYYY-MM-DD hh:mm:ss) UTC,Instrument flags,Ambient pressure (hPa),Sample flow (lpm),Bypass flow (lpm),Sample temperature (°C),Ambient temperature (°C),ASC tube jacket temperature (°C),LED temperature (°C),Box temperature (°C),Sample RH (%),Span deviation,Mass concentration (μg/m³),Mass concentration (μg/m³),Mass concentration (μg/m³)
DateTimeUTC,F1_M11,P_M11,Q1_M11,Q2_M11,T1_M11,T2_M11,T3_M11,T4_M11,T5_M11,U1_M11,ZSPAN_M11,X0_M11,X2_M11,X1_M11
2022-12-17 09:00:00,,0820.5,4.98,0.00,21.2,19.4,00.0,30.2,22.8,04.5,0000.0,0002.30,0001.37,0001.05
2022-12-17 09:01:00,,0820.5,5.01,0.00,21.2,19.4,00.0,30.2,22.8,04.5,0000.0,0002.31,0001.38,0001.04
2022-12-17 09:02:00,,0820.5,5.02,0.00,21.2,20.3,00.0,30.1,23.0,04.5,0000.0,0002.32,0001.37,0001.03
2022-12-17 09:03:00,,0820.6,4.96,0.00,21.3,21.6,00.0,30.1,23.3,04.5,0000.0,0002.30,0001.37,0001.03
2022-12-17 09:04:00,,0820.6,4.99,0.00,21.5,21.8,00.0,30.1,23.4,04.4,0000.0,0002.27,0001.36,0001.03
2022-12-17 09:05:00,,0820.6,5.02,0.00,21.5,21.2,00.0,30.2,23.3,04.4,0000.0,0002.22,0001.35,0001.03
2022-12-17 09:06:00,,0820.6,4.96,0.00,21.4,20.7,00.0,30.2,23.2,04.5,0000.0,0002.19,0001.34,0001.02
2022-12-17 09:07:00,,0820.5,5.04,0.00,21.4,20.3,00.0,30.2,23.1,04.5,0000.0,0002.47,0001.33,0001.01
2022-12-17 09:08:00,,0820.5,4.98,0.00,21.4,20.0,00.0,30.2,23.0,04.4,0000.0,0003.03,0001.35,0001.02
2022-12-17 09:09:00,,0820.5,5.01,0.00,21.3,19.8,00.0,30.2,23.0,04.5,0000.0,0002.97,0001.32,0001.03
2022-12-17 09:10:00,,0820.6,5.03,0.00,21.3,19.7,00.0,30.2,22.9,04.5,0000.0,0002.90,0001.30,0001.03
2022-12-17 09:11:00,,0820.6,4.95,0.00,21.3,19.7,00.0,30.2,22.9,04.5,0000.0,0003.41,0001.31,0001.03
2022-12-17 09:12:00,,0820.6,5.03,0.00,21.3,19.7,00.0,30.2,22.9,04.6,0000.0,0004.05,0001.31,0001.04
2022-12-17 09:13:00,,0820.6,5.01,0.00,21.3,19.7,00.0,30.2,23.0,04.6,0000.0,0003.99,0001.30,0001.05
2022-12-17 09:14:00,,0820.6,4.99,0.00,21.3,20.2,00.0,30.2,23.1,04.7,0000.0,0003.94,0001.28,0001.04
2022-12-17 09:15:00,,0820.7,4.98,0.00,21.4,21.5,00.0,30.1,23.4,04.7,0000.0,0003.88,0001.26,0001.04
2022-12-17 09:16:00,,0820.6,5.03,0.00,21.6,22.2,00.0,30.2,23.6,04.6,0000.0,0003.89,0001.27,0001.04
2022-12-17 09:17:00,,0820.6,4.96,0.00,21.6,21.9,00.0,30.3,23.6,04.6,0000.0,0004.68,0001.31,0001.04
2022-12-17 09:18:00,,0820.7,5.05,0.00,21.6,21.5,00.0,30.3,23.5,04.7,0000.0,0004.52,0001.32,0001.04
2022-12-17 09:19:00,,0820.7,4.97,0.00,21.7,21.2,00.0,30.3,23.5,04.7,0000.0,0003.88,0001.27,0001.02
2022-12-17 09:20:00,,0820.7,5.04,0.00,21.7,20.9,00.0,30.4,23.5,04.7,0000.0,0003.78,0001.23,0001.01
2022-12-17 09:21:00,,0820.7,4.96,0.00,21.7,20.7,00.0,30.4,23.5,04.6,0000.0,0003.82,0001.25,0001.00
2022-12-17 09:22:00,,0820.8,5.03,0.00,21.7,20.6,00.0,30.4,23.4,04.6,0000.0,0003.46,0001.28,0001.01
2022-12-17 09:23:00,,0820.8,4.96,0.00,21.7,20.5,00.0,30.4,23.4,04.8,0000.0,0002.71,0001.31,0001.02
2022-12-17 09:24:00,,0820.8,5.04,0.00,21.7,20.4,00.0,30.4,23.4,04.6,0000.0,0002.79,0001.36,0001.02
2022-12-17 09:25:00,,0820.9,4.95,0.00,21.6,20.4,00.0,30.4,23.4,04.6,0000.0,0002.99,0001.44,0001.05
2022-12-17 09:26:00,,0820.9,5.04,0.00,21.6,20.4,00.0,30.4,23.4,04.5,0000.0,0003.15,0001.51,0001.05
2022-12-17 09:27:00,,0820.9,4.96,0.00,21.6,20.3,00.0,30.4,23.4,04.5,0000.0,0003.80,0001.53,0001.06
2022-12-17 09:28:00,,0820.9,5.03,0.00,21.6,20.2,00.0,30.4,23.4,04.3,0000.0,0005.40,0001.61,0001.07
2022-12-17 09:29:00,,0820.9,5.00,0.00,21.6,20.2,00.0,30.4,23.3,04.3,0000.0,0005.74,0001.73,0001.10
2022-12-17 09:30:00,,0820.9,4.99,0.00,21.6,20.2,00.0,30.4,23.3,04.4,0000.0,0006.24,0001.86,0001.13
2022-12-17 09:31:00,,0820.9,5.03,0.00,21.6,20.5,00.0,30.4,23.4,04.3,0000.0,0006.73,0002.01,0001.16
2022-12-17 09:32:00,,0820.9,4.98,0.00,21.7,21.5,00.0,30.4,23.6,04.2,0000.0,0007.48,0002.25,0001.19
2022-12-17 09:33:00,,0820.9,4.99,0.00,21.8,22.3,00.0,30.4,23.9,04.1,0000.0,0008.03,0002.39,0001.22
2022-12-17 09:34:00,,0821.0,5.01,0.00,21.9,22.0,00.0,30.5,23.9,04.1,0000.0,0009.17,0002.45,0001.23
2022-12-17 09:35:00,,0821.0,5.01,0.00,21.9,21.6,00.0,30.5,23.8,04.1,0000.0,0010.94,0002.58,0001.25
2022-12-17 09:36:00,,0820.9,4.97,0.00,21.9,21.3,00.0,30.6,23.7,04.1,0000.0,0012.07,0002.86,0001.28
2022-12-17 09:37:00,,0820.9,5.04,0.00,21.9,21.1,00.0,30.6,23.7,04.1,0000.0,0013.20,0003.17,0001.36
2022-12-17 09:38:00,,0820.9,4.96,0.00,21.9,20.9,00.0,30.6,23.7,04.2,0000.0,0014.95,0003.36,0001.44
2022-12-17 09:39:00,,0820.9,5.04,0.00,21.9,20.7,00.0,30.6,23.6,04.3,0000.0,0014.48,0003.43,0001.49
2022-12-17 09:40:00,,0820.9,5.00,0.00,21.8,20.5,00.0,30.6,23.6,04.4,0000.0,0014.75,0003.52,0001.54
2022-12-17 09:41:00,,0820.9,4.99,0.00,21.8,20.4,00.0,30.6,23.5,04.5,0000.0,0015.09,0003.59,0001.56
2022-12-17 09:42:00,,0821.0,5.03,0.00,21.8,20.4,00.0,30.6,23.5,04.7,0000.0,0016.44,0003.69,0001.61
2022-12-17 09:43:00,,0821.0,4.98,0.00,21.9,21.4,00.0,30.6,23.7,04.8,0000.0,0017.14,0003.72,0001.67
2022-12-17 09:44:00,,0821.0,4.99,0.00,22.0,22.2,00.0,30.6,24.0,04.8,0000.0,0017.26,0003.72,0001.77
2022-12-17 09:45:00,,0821.0,4.97,0.00,22.0,22.0,00.0,30.6,24.0,04.9,0000.0,0017.18,0003.79,0001.91
2022-12-17 09:46:00,,0821.0,5.04,0.00,22.0,21.6,00.0,30.7,23.9,05.1,0000.0,0016.01,0003.88,0002.08
2022-12-17 09:47:00,,0821.0,4.96,0.00,22.0,21.2,00.0,30.7,23.8,05.1,0000.0,0016.75,0003.91,0002.27
2022-12-17 09:48:00,,0821.0,5.04,0.00,22.0,20.9,00.0,30.7,23.8,05.1,0000.0,0016.68,0003.89,0002.47
2022-12-17 09:49:00,,0821.0,4.96,0.00,22.0,20.7,00.0,30.8,23.7,05.1,0000.0,0015.01,0003.88,0002.70
2022-12-17 09:50:00,,0821.0,5.04,0.00,21.9,20.5,00.0,30.8,23.6,05.1,0000.0,0014.52,0003.96,0002.96
2022-12-17 09:51:00,,0821.0,4.99,0.00,21.9,20.5,00.0,30.7,23.6,05.1,0000.0,0014.05,0004.00,0003.17
2022-12-17 09:52:00,,0821.0,5.01,0.00,22.0,21.5,00.0,30.7,23.9,05.1,0000.0,0013.68,0004.07,0003.32
2022-12-17 09:53:00,,0821.0,4.98,0.00,22.1,22.3,00.0,30.7,24.1,05.0,0000.0,0012.44,0004.14,0003.48
2022-12-17 09:54:00,,0821.0,4.98,0.00,22.2,22.1,00.0,30.8,24.1,04.8,0000.3,0011.73,0004.22,0003.63
2022-12-17 09:55:00,,0821.0,5.05,0.00,22.2,21.7,00.0,30.8,24.0,04.8,0003.1,0011.29,0004.33,0003.74
2022-12-17 09:56:00,,0821.0,4.96,0.00,22.2,21.3,00.0,30.9,23.9,04.8,0003.2,0010.66,0004.44,0003.84
2022-12-17 09:57:00,,0821.0,5.04,0.00,22.1,21.1,00.0,30.9,23.9,04.8,0003.5,0010.21,0004.48,0003.92
2022-12-17 09:58:00,,0821.0,4.96,0.00,22.1,20.9,00.0,30.9,23.8,04.8,0003.7,0008.92,0004.50,0003.97
2022-12-17 09:59:00,,0821.0,5.04,0.00,22.1,20.7,00.0,30.9,23.8,04.8,0003.8,0008.10,0004.52,0004.00
